Kirksville, MO

8:54 AM CDT on August 18, 2017 (GMT -0500)
Kirksville Regional

Weather History for KIRK - August, 2014

Change the Weather History Date:

Friday, August 29, 2014

  Actual Average Record
Temperature  
Mean Temperature 78 °F 71 °F  
Max Temperature 88 °F 82 °F 105 °F (1984)
Min Temperature 68 °F 60 °F 42 °F (1986)
Degree Days  
Heating Degree Days 0 0  
Month to date heating degree days 0 0  
Since 1 June heating degree days 12 17  
Since 1 July heating degree days 6 1  
Cooling Degree Days 13 7  
Month to date cooling degree days 285 263  
Year to date cooling degree days 845 830  
Since 1 June cooling degree days 723 768  
Growing Degree Days 26 (Base 50)    
Moisture  
Dew Point 69 °F    
Average Humidity 79    
Maximum Humidity 97    
Minimum Humidity 61    
Precipitation  
Precipitation 0.24 in 0.15 in 2.05 in (1989)
Month to date precipitation 8.51 3.48  
Year to date precipitation 27.84 27.07  
Sea Level Pressure  
Sea Level Pressure 29.87 in    
Wind  
Wind Speed 8 mph (South)    
Max Wind Speed 17 mph    
Max Gust Speed 25 mph    
Visibility 7 miles    
Events Rain , Thunderstorm    
T = Trace of Precipitation, MM = Missing Value Source: NWS Daily Summary

Daily Weather History Graph

Daily Weather History Graph

Search for Another Location

Airport or City:

Trip Planner

Search our weather history database for the weather conditions in past years. The results will help you decide how hot, cold, wet, or windy it might be!

Date:

Astronomy

Aug. 29, 2014 Rise Set
Actual Time 6:35 AM CDT 7:46 PM CDT
Civil Twilight 6:06 AM CDT 8:14 PM CDT
Nautical Twilight 5:33 AM CDT 8:47 PM CDT
Astronomical Twilight 4:58 AM CDT 9:22 PM CDT
Moon 10:25 AM CDT (8/29) 9:44 PM CDT (8/29)
Length of Visible Light 14h 07m
Length of Day
13h 11m
Waxing Crescent, 15% of the Moon is Illuminated
Aug 29
Waxing Crescent
Sep 2
First Quarter
Sep 8
Full
Sep 15
Last Quarter
Sep 24
New

Hourly Weather History & Observations

Time (CDT) Temp. Heat Index Dew Point Humidity Pressure Visibility Wind Dir Wind Speed Gust Speed Precip Events Conditions
12:55 AM 72.0 °F - 70.0 °F 93% 29.93 in 5.0 mi SE 6.9 mph - N/A   Clear
1:55 AM 72.0 °F - 70.0 °F 93% 29.91 in 4.0 mi SE 4.6 mph - N/A   Clear
2:55 AM 72.0 °F - 70.0 °F 93% 29.90 in 5.0 mi SSE 9.2 mph - N/A   Clear
3:55 AM 72.0 °F - 70.0 °F 93% 29.89 in 4.0 mi South 9.2 mph - N/A   Scattered Clouds
4:55 AM 70.0 °F - 68.0 °F 93% 29.89 in 4.0 mi SSE 5.8 mph - N/A   Clear
5:55 AM 70.0 °F - 68.0 °F 93% 29.88 in 4.0 mi South 6.9 mph - N/A   Clear
6:47 AM 68.0 °F - 66.0 °F 93% 29.92 in 2.5 mi SSE 4.6 mph - N/A   Clear
6:55 AM 68.0 °F - 66.0 °F 93% 29.91 in 2.0 mi South 5.8 mph - N/A   Clear
7:11 AM 69.1 °F - 66.9 °F 93% 29.93 in 3.0 mi SSE 5.8 mph - N/A   Clear
7:55 AM 71.1 °F - 68.0 °F 90% 29.91 in 5.0 mi South 8.1 mph - N/A   Clear
8:55 AM 75.9 °F - 68.0 °F 76% 29.91 in 10.0 mi South 8.1 mph - N/A   Clear
9:55 AM 79.0 °F - 68.0 °F 69% 29.90 in 10.0 mi South 12.7 mph - N/A   Clear
10:55 AM 82.9 °F 87.0 °F 70.0 °F 65% 29.89 in 10.0 mi South 8.1 mph - N/A   Clear
11:55 AM 84.9 °F 89.4 °F 70.0 °F 61% 29.88 in 10.0 mi South 12.7 mph - N/A   Clear
12:55 PM 84.9 °F 88.8 °F 69.1 °F 59% 29.85 in 10.0 mi SSW 13.8 mph 20.7 mph N/A   Partly Cloudy
1:55 PM 82.9 °F 86.5 °F 69.1 °F 63% 29.83 in 10.0 mi South 13.8 mph - N/A   Partly Cloudy
2:55 PM 75.9 °F - 68.0 °F 76% 29.84 in 8.0 mi WSW 11.5 mph 21.9 mph 0.00 in Rain , Thunderstorm Light Rain
3:03 PM 73.9 °F - 69.1 °F 85% 29.86 in 2.0 mi South 15.0 mph - 0.01 in Rain , Thunderstorm Thunderstorms and Rain
3:09 PM 73.0 °F - 69.1 °F 87% 29.85 in 0.8 mi SSW 13.8 mph 23.0 mph 0.13 in Rain , Thunderstorm Heavy Thunderstorms and Rain
3:19 PM 72.0 °F - 69.1 °F 91% 29.86 in 2.0 mi SW 15.0 mph 20.7 mph 0.20 in Rain , Thunderstorm Thunderstorms and Rain
3:34 PM 72.0 °F - 69.1 °F 91% 29.85 in 3.0 mi SSW 8.1 mph 20.7 mph 0.24 in Rain , Thunderstorm Light Rain
3:55 PM 73.0 °F - 69.1 °F 87% 29.83 in 10.0 mi South 8.1 mph - 0.24 in   Scattered Clouds
4:55 PM 77.0 °F - 72.0 °F 84% 29.81 in 10.0 mi SSW 5.8 mph - N/A   Partly Cloudy
5:55 PM 77.0 °F - 72.0 °F 84% 29.82 in 10.0 mi South 5.8 mph - N/A   Mostly Cloudy
6:28 PM 77.0 °F - 72.0 °F 84% 29.83 in 9.0 mi SSW 9.2 mph - N/A   Mostly Cloudy
6:37 PM 77.0 °F - 72.0 °F 84% 29.83 in 9.0 mi SW 9.2 mph - N/A   Scattered Clouds
6:55 PM 78.1 °F - 71.1 °F 79% 29.82 in 10.0 mi SW 9.2 mph - N/A   Clear
7:55 PM 75.0 °F - 70.0 °F 84% 29.83 in 10.0 mi SSW 4.6 mph - N/A   Clear
8:55 PM 71.1 °F - 68.0 °F 90% 29.83 in 10.0 mi South 4.6 mph - N/A   Clear
9:55 PM 70.0 °F - 66.9 °F 90% 29.85 in 9.0 mi SSE 6.9 mph - N/A   Clear
10:55 PM 69.1 °F - 66.9 °F 93% 29.84 in 8.0 mi SSE 8.1 mph - N/A   Clear
11:55 PM 71.1 °F - 68.0 °F 90% 29.85 in 10.0 mi South 5.8 mph - N/A   Mostly Cloudy